[[{"header":{"parameterUnit":"m.s-1","parameterCategory":1,"la1":30.2991,"la2":30.254,"lo1":-89.0895,"lo2":-89.0444,"dy":0.0017,"dx":0.0017,"nx":28,"ny":28,"refTime":"2025-02-01T03:00:00:Z","depth":0,"parameterNumber":2,"parameterNumberName":"U-component_of_WINDS"},"data":[0,0,0,0,0,0,0,0,0,0,0,0,0,0,0,0,0,0,0,0,0,0,0,0,0,0,0,0,0,0,0,0,0,0,0,0,0,0,0,0,0,0,0,0,0,0,0,0,0,0,0,0,0,0,0,0,0,0,-1.1634,-1.1635,0,-1.1695,-1.1696,-1.1697,-1.1695,-1.1694,-1.1693,-1.1692,-1.1759,-1.1762,-1.1764,0,0,0,0,0,0,0,0,0,0,0,0,0,-1.1519,-1.1521,-1.1634,-1.1635,-1.1635,-1.1695,-1.1696,-1.1697,-1.1695,-1.1694,-1.1693,-1.1692,-1.1758,-1.1761,-1.1764,0,0,0,0,0,0,0,0,0,0,0,0,0,-1.1574,-1.1522,-1.1634,-1.1642,-1.1643,-1.1695,-1.1696,-1.1697,-1.1695,-1.1694,-1.1693,-1.1692,-1.1757,-1.1761,-1.1765,-1.1814,0,0,-1.1777,-1.1778,0,0,0,0,0,0,0,0,-1.1571,-1.1578,-1.164,-1.1641,-1.1643,-1.1686,-1.168,-1.1737,-1.1696,-1.1676,-1.1692,-1.1691,-1.1736,-1.1742,-1.1756,-1.1817,-1.182,-1.1777,-1.1779,-1.1781,-1.1782,0,0,0,0,0,0,0,-1.1567,-1.1575,-1.1658,-1.1641,-1.1643,-1.1644,-1.165,-1.1691,-1.1712,-1.1677,-1.1677,-1.1684,-1.1737,-1.1752,-1.1758,-1.1821,-1.1777,-1.178,-1.1783,-1.1784,-1.1928,-1.1929,0,0,0,0,0,0,-1.1561,-1.1572,-1.1656,-1.166,-1.1603,-1.1647,-1.1654,-1.1674,-1.1712,-1.1716,-1.1685,-1.1684,-1.1746,-1.1753,-1.176,-1.1821,-1.1781,-1.1785,-1.1787,-1.1926,-1.1928,-1.193,0,0,0,0,0,0,-1.1558,-1.1568,-1.1654,-1.1616,-1.1627,-1.165,-1.1672,-1.1675,-1.1691,-1.1718,-1.1722,-1.1697,-1.1746,-1.1755,-1.1801,-1.1823,-1.1786,-1.179,-1.1925,-1.1927,-1.1929,-1.1943,0,0,0,0,0,0,-1.1555,-1.1568,-1.1585,-1.1617,-1.1629,-1.1692,-1.1674,-1.1678,-1.1697,-1.1696,-1.173,-1.1735,-1.1745,-1.1795,-1.1805,-1.1828,-1.1793,-1.1923,-1.1926,-1.1928,-1.1941,-1.1946,-1.195,0,0,0,0,0,-1.1551,-1.1588,-1.1586,-1.1597,-1.1652,-1.1694,-1.1701,-1.1712,-1.1699,-1.1718,-1.1736,-1.1734,-1.1819,-1.18,-1.1811,-1.1835,-1.1921,-1.1925,-1.1928,-1.1939,-1.1945,-1.195,0,0,0,0,0,0,-1.156,-1.1592,-1.1591,-1.1638,-1.1663,-1.1693,-1.1717,-1.1717,-1.1747,-1.1745,-1.1758,-1.1766,-1.1812,-1.1829,-1.1806,-1.1886,-1.1869,-1.1875,-1.1873,-1.1879,-1.1884,-1.1879,-1.1796,0,0,0,0,0,-1.1567,-1.1597,-1.1624,-1.1663,-1.1676,-1.1695,-1.1713,-1.1719,-1.1746,-1.1757,-1.1778,-1.1805,-1.1838,-1.186,-1.1892,-1.1943,-1.1951,-1.1966,-1.197,-1.1974,-1.1979,-1.2008,-1.2015,-1.1941,-1.1941,-1.1941,0,0,-1.1583,-1.1604,-1.1622,-1.1666,-1.1686,-1.1718,-1.1703,-1.1738,-1.1762,-1.1762,-1.1807,-1.1823,-1.1855,-1.1904,-1.1927,-1.1919,-1.2001,-1.1978,-1.1981,-1.1984,-1.2013,-1.202,-1.2026,-1.1943,-1.1943,-1.1942,0,0,-1.1627,-1.1646,-1.1681,-1.1701,-1.1731,-1.1744,-1.1752,-1.1783,-1.1793,-1.1838,-1.1839,-1.1869,-1.1926,-1.1948,-1.1967,-1.2022,-1.2021,-1.2032,-1.2055,-1.2084,-1.209,-1.2095,-1.2115,-1.2122,-1.2037,-1.2037,-1.2037,0,-1.1643,-1.169,-1.17,-1.1734,-1.1754,-1.1755,-1.1791,-1.1811,-1.185,-1.1864,-1.1855,-1.1926,-1.1948,-1.2003,-1.2016,-1.2031,-1.2042,-1.2028,-1.2088,-1.2093,-1.2098,-1.2118,-1.2125,-1.2038,-1.2038,-1.2037,-1.2037,0,-1.1709,-1.1741,-1.1767,-1.1803,-1.1826,-1.1861,-1.1877,-1.19,-1.1904,-1.1918,-1.1964,-1.199,-1.2027,-1.2041,-1.2046,-1.2097,-1.2091,-1.2085,-1.2068,-1.2106,-1.2125,-1.2132,-1.2039,-1.2039,-1.2039,-1.2038,0,0,-1.176,-1.1802,-1.1811,-1.1828,-1.1862,-1.1888,-1.1924,-1.196,-1.1979,-1.2006,-1.2038,-1.2086,-1.208,-1.2102,-1.211,-1.2135,-1.2177,-1.2125,-1.2126,-1.2134,-1.2236,-1.2241,-1.2249,-1.2177,-1.2179,-1.218,-1.2234,0,-1.1809,-1.1871,-1.1881,-1.1937,-1.1968,-1.1969,-1.2001,-1.2026,-1.204,-1.207,-1.2086,-1.212,-1.211,-1.2123,-1.2148,-1.2166,-1.2198,-1.2163,-1.2208,-1.2209,-1.22,-1.2259,-1.2264,-1.2313,-1.2241,-1.2242,-1.2243,0,-1.1873,-1.1902,-1.196,-1.199,-1.2003,-1.2031,-1.2065,-1.2093,-1.2122,-1.2131,-1.2155,-1.216,-1.2199,-1.218,-1.2235,-1.2211,-1.2231,-1.2243,-1.2245,-1.225,-1.2228,-1.2265,-1.2329,-1.2337,-1.2254,-1.2253,-1.2253,0,-1.1906,-1.1958,-1.2,-1.2015,-1.2051,-1.207,-1.2087,-1.2114,-1.2135,-1.2165,-1.2179,-1.2214,-1.2233,-1.2261,-1.2276,-1.2261,-1.233,-1.2313,-1.234,-1.2339,-1.2354,-1.2353,-1.2422,-1.2366,-1.2366,-1.2366,-1.2366,0,-1.1959,-1.1994,-1.2015,-1.2041,-1.2081,-1.2093,-1.2134,-1.215,-1.2174,-1.2204,-1.2209,-1.2237,-1.2255,-1.2286,-1.2298,-1.2343,-1.2351,-1.236,-1.2363,-1.236,-1.2359,-1.2373,-1.237,-1.2368,-1.2368,-1.2367,-1.2367,0,-1.2001,-1.2016,-1.2062,-1.2092,-1.2101,-1.2129,-1.2156,-1.2182,-1.2196,-1.2234,-1.2244,-1.2267,-1.2304,-1.2322,-1.2368,-1.2377,-1.2427,-1.2428,-1.2417,-1.2418,-1.2444,-1.2441,-1.2525,-1.2537,-1.2472,-1.2473,-1.2473,0,-1.2034,-1.2062,-1.2094,-1.2114,-1.2131,-1.2162,-1.2184,-1.2197,-1.2219,-1.2255,-1.2277,-1.2314,-1.2344,-1.2404,-1.2426,-1.2462,-1.2464,-1.2491,-1.2469,-1.2466,-1.2465,-1.2463,-1.2466,-1.2495,-1.2495,-1.2496,-1.2496,0,-1.2091,-1.2097,-1.2127,-1.216,-1.2184,-1.2211,-1.2238,-1.2254,-1.2272,-1.2297,-1.2334,-1.2358,-1.2405,-1.2443,-1.248,-1.2499,-1.2501,-1.2503,-1.2511,-1.2508,-1.2501,-1.2505,-1.2427,-1.2501,-1.25,-1.25,-1.25,-1.2499,-1.213,-1.2155,-1.2182,-1.2215,-1.2236,-1.2261,-1.2286,-1.2304,-1.2335,-1.2373,-1.238,-1.242,-1.245,-1.25,-1.252,-1.2553,-1.2547,-1.2559,-1.2562,-1.2565,-1.2566,-1.2495,-1.256,-1.256,-1.256,-1.256,-1.256,0,-1.2188,-1.2205,-1.2235,-1.2272,-1.2298,-1.2297,-1.2326,-1.2349,-1.2384,-1.241,-1.244,-1.2484,-1.252,-1.2545,-1.2583,-1.2604,-1.2606,-1.2614,-1.2612,-1.2617,-1.2569,-1.2558,-1.2611,-1.2611,-1.2611,-1.2611,-1.2611,-1.2611,-1.2221,-1.2262,-1.2272,-1.2325,-1.2342,-1.238,-1.2397,-1.2421,-1.2442,-1.249,-1.252,-1.2536,-1.2562,-1.2602,-1.2636,-1.2642,-1.2656,-1.2664,-1.267,-1.2625,-1.262,-1.2615,-1.2605,-1.2667,-1.2667,-1.2715,-1.2716,-1.2716]},{"header":{"parameterUnit":"m.s-1","parameterCategory":1,"la1":30.2991,"la2":30.254,"lo1":-89.0895,"lo2":-89.0444,"dy":0.0017,"dx":0.0017,"nx":28,"ny":28,"refTime":"2025-02-01T03:00:00:Z","depth":0,"parameterNumber":3,"parameterNumberName":"V-component_of_WINDS"},"data":[0,0,0,0,0,0,0,0,0,0,0,0,0,0,0,0,0,0,0,0,0,0,0,0,0,0,0,0,0,0,0,0,0,0,0,0,0,0,0,0,0,0,0,0,0,0,0,0,0,0,0,0,0,0,0,0,0,0,0.9364,0.9364,0,0.9386,0.9386,0.9386,0.9395,0.9395,0.9395,0.9395,0.9416,0.9417,0.9418,0,0,0,0,0,0,0,0,0,0,0,0,0,0.9331,0.9331,0.9364,0.9364,0.9365,0.9386,0.9386,0.9386,0.9395,0.9395,0.9395,0.9395,0.9416,0.9417,0.9418,0,0,0,0,0,0,0,0,0,0,0,0,0,0.9348,0.9331,0.9364,0.9372,0.9373,0.9386,0.9386,0.9386,0.9395,0.9395,0.9395,0.9395,0.9416,0.9417,0.9418,0.9425,0,0,0.9421,0.9421,0,0,0,0,0,0,0,0,0.9347,0.9349,0.937,0.9371,0.9372,0.9388,0.9382,0.9399,0.9395,0.9387,0.9395,0.9395,0.9407,0.9409,0.9413,0.9426,0.9427,0.9421,0.9421,0.9422,0.9422,0,0,0,0,0,0,0,0.9346,0.9348,0.9373,0.9371,0.9372,0.9374,0.9376,0.9385,0.9397,0.9387,0.9388,0.939,0.9407,0.9412,0.9413,0.9427,0.9421,0.9421,0.9422,0.9422,0.9446,0.9446,0,0,0,0,0,0,0.9343,0.9347,0.9372,0.9373,0.9359,0.9375,0.9377,0.9383,0.9397,0.9399,0.939,0.9391,0.941,0.9412,0.9414,0.9423,0.9422,0.9422,0.9423,0.9446,0.9446,0.9446,0,0,0,0,0,0,0.9342,0.9345,0.9371,0.936,0.9364,0.9375,0.9381,0.9383,0.9388,0.9399,0.9401,0.9393,0.941,0.9413,0.9422,0.9424,0.9423,0.9424,0.9446,0.9446,0.9446,0.9441,0,0,0,0,0,0,0.9341,0.9345,0.9348,0.936,0.9364,0.9379,0.9381,0.9384,0.9389,0.939,0.9402,0.9404,0.941,0.942,0.9423,0.9425,0.9424,0.9446,0.9446,0.9446,0.9441,0.944,0.944,0,0,0,0,0,0.934,0.9345,0.9348,0.9351,0.9368,0.9379,0.9381,0.9389,0.9389,0.9392,0.94,0.9403,0.9423,0.9421,0.9424,0.9426,0.9446,0.9446,0.9446,0.9441,0.944,0.944,0,0,0,0,0,0,0.9333,0.9347,0.935,0.936,0.9368,0.938,0.9384,0.9388,0.9397,0.9397,0.9406,0.9408,0.9417,0.9422,0.942,0.9434,0.9435,0.9435,0.943,0.943,0.9429,0.9428,0.9425,0,0,0,0,0,0.9332,0.934,0.9352,0.9359,0.9363,0.9373,0.9378,0.9383,0.9392,0.9395,0.9403,0.9412,0.942,0.9425,0.9433,0.9441,0.9444,0.9444,0.9444,0.9444,0.9445,0.9449,0.945,0.9447,0.9447,0.9447,0,0,0.9331,0.934,0.9344,0.9358,0.9365,0.9372,0.9376,0.9384,0.9389,0.9397,0.9406,0.9412,0.9422,0.943,0.9435,0.9436,0.9446,0.9444,0.9444,0.9445,0.9449,0.945,0.945,0.9447,0.9447,0.9447,0,0,0.9334,0.9341,0.9348,0.9355,0.9365,0.9372,0.9373,0.9385,0.9389,0.9399,0.9404,0.9411,0.9424,0.9431,0.9436,0.944,0.9444,0.9443,0.9442,0.9447,0.9447,0.9447,0.9448,0.9449,0.9443,0.9443,0.9443,0,0.9331,0.9343,0.9351,0.9358,0.9364,0.9371,0.9377,0.9384,0.9396,0.94,0.9401,0.9418,0.9425,0.9435,0.9436,0.944,0.9442,0.9442,0.9446,0.9446,0.9447,0.9448,0.9449,0.9443,0.9443,0.9443,0.9443,0,0.9339,0.9347,0.9351,0.9363,0.9369,0.9376,0.9385,0.939,0.9394,0.9401,0.941,0.9419,0.9429,0.9431,0.9436,0.9442,0.9442,0.9444,0.9446,0.9447,0.9448,0.9449,0.9443,0.9443,0.9443,0.9443,0,0,0.9338,0.9354,0.9355,0.936,0.9372,0.9379,0.9386,0.9395,0.94,0.9408,0.9414,0.9425,0.9427,0.9433,0.9438,0.9442,0.9445,0.9444,0.9444,0.9444,0.9452,0.9451,0.9451,0.9447,0.9447,0.9447,0.9451,0,0.9341,0.9355,0.9362,0.9372,0.938,0.9386,0.9392,0.94,0.9406,0.9413,0.9419,0.9427,0.9429,0.9432,0.9437,0.9444,0.9447,0.9443,0.9453,0.9453,0.945,0.9452,0.9451,0.9454,0.9452,0.9452,0.9452,0,0.9348,0.9356,0.9367,0.9378,0.9381,0.9387,0.9396,0.9403,0.9411,0.9415,0.9422,0.9427,0.9434,0.9435,0.9445,0.9443,0.9447,0.9451,0.9451,0.9453,0.9453,0.9454,0.9455,0.9456,0.9453,0.9453,0.9453,0,0.9346,0.9359,0.9368,0.9372,0.9385,0.9389,0.9394,0.9403,0.9408,0.9416,0.942,0.9428,0.9433,0.944,0.9447,0.9446,0.9456,0.9457,0.946,0.946,0.9462,0.9462,0.9464,0.9464,0.9464,0.9464,0.9464,0,0.9349,0.9356,0.9367,0.9372,0.938,0.9387,0.9394,0.94,0.9408,0.9414,0.942,0.9426,0.9435,0.9441,0.9447,0.9455,0.9457,0.946,0.9461,0.946,0.9459,0.9463,0.9463,0.9464,0.9464,0.9464,0.9464,0,0.9349,0.9356,0.9366,0.9377,0.938,0.9385,0.9394,0.9399,0.9405,0.9413,0.9415,0.9425,0.9433,0.9441,0.9451,0.9455,0.9463,0.9465,0.946,0.9461,0.9463,0.9462,0.9468,0.9469,0.9468,0.9468,0.9468,0,0.9351,0.9356,0.9367,0.9372,0.9377,0.9385,0.939,0.9398,0.9403,0.9413,0.9417,0.9426,0.9433,0.9446,0.9453,0.9461,0.9464,0.9465,0.9465,0.9463,0.9464,0.9463,0.9464,0.9465,0.9465,0.9465,0.9465,0,0.9353,0.9357,0.9364,0.9373,0.9379,0.9386,0.9394,0.9397,0.9406,0.9412,0.942,0.9426,0.9437,0.9445,0.9454,0.946,0.9464,0.9465,0.9466,0.9464,0.9461,0.9463,0.946,0.9464,0.9465,0.9465,0.9465,0.9465,0.9354,0.9359,0.9368,0.9376,0.9382,0.9389,0.9394,0.9401,0.9408,0.9417,0.9421,0.943,0.9438,0.9451,0.9456,0.9463,0.9463,0.9465,0.9465,0.9466,0.9465,0.946,0.9464,0.9464,0.9464,0.9464,0.9464,0,0.9357,0.9363,0.937,0.938,0.9387,0.939,0.9398,0.9403,0.941,0.9418,0.9425,0.9434,0.9442,0.945,0.9459,0.9463,0.9465,0.9465,0.9464,0.9466,0.9464,0.9462,0.9463,0.9463,0.9463,0.9463,0.9463,0.9463,0.936,0.9368,0.9372,0.9383,0.9389,0.9398,0.9402,0.9408,0.9414,0.9424,0.9431,0.9436,0.9444,0.9453,0.946,0.9462,0.9465,0.9465,0.9467,0.9466,0.9466,0.9466,0.9464,0.9465,0.9465,0.9468,0.9469,0.9469]}]]